STARLINK-2594 (48388 NORAD) Tracking and Keplerian Element Data

This shows tracking and keplerian element data for the satellite.

Feedback or suggestion? Click here.




ElementValue
Catalog48388
NameSTARLINK-2594
Epoch Orbit363
Epoch Day214.91667824
Epoch Year2021
RAAN327.4011
Inclination53.0522
Eccentricity7.14E-05
Argument of Perigee66.9979
Mean Anonmoly79.366
Mean Motion15.06385009
Decay Rate-0.00024762
L11 48388U 21038AM 21214.91667824 -.00024762 00000-0 -16500-2 0 9995
L22 48388 53.0522 327.4011 0000714 66.9979 79.3660 15.06385009 3636

Live tracking and technical data element details for STARLINK-2594 (NORAD 48388). STARLINK-2594 can be tracked NOW for your location showing map with azimuth and elevation plus other details from your city location.

Track the satellite on the map from your city or location and see movement details for azimuth, elevation, latitude, longitude, range, height, and movement on the map or in text.







IsCatalogInMostPopularTable: catalog: 48388, numindb: 29
Update: records affected: 1



GetName: 48388 STARLINK-2594

Hit Count: updated at: Tue, 03 Aug 2021 21:15:20 GMT